EHI
0 0 0 0 0 0 0 0 0 0 0 0 0 0 0 0 0 0 0 0 0 0 0 0 0 0 0 0 0 0 0 0 0 0 0 0 0 0 0 0 0 0 0 0
0 0 0 0 0 0 0 0 0 0 0 0 0 0 0 0 0 0 0 0 0 0 0 0 0 0 0 0 0 0 0 0 0 0 0 0 0 0 0 0 0 0 0 0
0 0 0 0 0 0 0 0 0 0 0 0 0 0 0 0 0 0 0 0 0 0 0 0 0 0 0 0 0 0 0 0 0 0 0 0 0 0 0 0 0 0 0 0
0 0 0 0 0 0 0 0 0 0 0 0 0 0 0 0 0 0 0 0 0 0 0 0 0 0 0 0 0 0 0 0 0 0 0 0 0 0 0 0 0 0 0 0
0 0 0 0 0 0 0 0 0 0 0 0 0 0 0 0 0 0 0 0 0 0 0 0 0 0 0 0 0 0 0 0 0 0 0 0 0 0 0 0 0 0 0 0
0 0 0 0 0 0 0 0 0 0 0 0 0 0 0 0 0 0 0 0 0 0 0 0 0 0 0 0 0 0 0 0 0 0 0 0 0 0 0 0 0 0 0 0
0 0 0 0 0 0 0 0 0 0 0 0 0 0 0 0 0 0 0 0 0 0 0 0 0 0 0 0 0 0 0 0 0 0 0 0 0 0 0 0 0 0 0 0
0 0 0 0 0 0 0 0 0 0 0 0 0 0 0 0 0 0 0 0 0 0 0 0 0 0 0 0 0 0 0 0 0 0 0 0 0 0 0 0 0 0 0 0
0 0 0 0 0 0 0 0 0 0 0 0 0 0 0 0 0 0 0 0 0 0 0 0 0 0 0 0 0 0 0 0 0 0 0 0 0 0 0 0 0 0 0 0
0 0 0 0 0 0 0 0 0 0 0 0 0 0 0 0 0 0 0 0 0 0 0 0 0 0 0 0 0 0 0 0 0 0 0 0 0 0 0 0 0 0 0 0
0 0 0 0 0 0 0 0 0 0 0 0 0 0 0 0 0 0 0 0 0 0 0 0 0 0 0 0 0 0 0 0 0 0 0 0 0 0 0 0 0 0 0 0
0 0 0 0 0 0 0 0 0 0 0 0 0 0 0 0 0 0 0 0 0 0 0 0 0 0 0 0 0 0 0 0 0 0 0 0 0 0 0 0 0 0 0 0
0 0 0 0 0 0 0 0 0 0 0 0 0 0 0 0 0 0 0 0 0 0 0 0 0 0 0 0 0 0 0 0 0 0 0 0 0 0 0 0 0 0 0 0
0 0 0 0 0 0 0 0 0 0 0 0 0 0 0 0 0 0 0 0 0 0 0 0 0 0 0 0 0 0 0 0 0 0 0 0 0 0 0 0 0 0 0 0
0 0 0 0 0 0 0 0 0 0 0 0 0 0 0 0 0 0 0 0 0 0 0 0 0 0 0 0 0 0 0 0 0 0 0 0 0 0 0 0 0 0 0 0
0 0 0 0 0 0 0 0 0 0 0 0 0 0 0 0 0 0 0 0 0 0 0 0 0 0 0 0 0 0 0 0 0 0 0 0 0 0 0 0 0 0 0 0
0 0 0 0 0 0 0 0 0 0 0 0 0 0 0 0 0 0 0 0 0 0 0 0 0 0 0 0 0 0 0 0 0 0 0 0 0 0 0 0 0 0 0 0
0 0 0 0 0 0 0 0 0 0 0 0 0 0 0 0 0 0 0 0 0 0 0 0 0 0 0 0 0 0 0 0 0 0 0 0 0 0 0 0 0 0 0 0
0 0 0 0 0 0 0 0 0 0 0 0 0 0 0 0 0 0 0 0 0 0 0 0 0 0 0 0 0 0 0 0 0 0 0 0 0 0 0 0 0 0 0 0
0 0 0 0 0 0 0 0 0 0 0 0 0 0 0 0 0 0 0 0 0 0 0 0 0 0 0 0 0 0 0 0 0 0 0 0 0 0 0 0 0 0 0 0
0 0 0 0 0 0 0 0 0 0 0 0 0 0 0 0 0 0 0 0 0 0 0 0 0 0 0 0 0 0 0 0 0 0 0 0 0 0 0 0 0 0 0 0
0 0 0 0 0 0 0 0 0 0 0 0 0 0 0 0 0 0 0 0 0 0 0 0 0 0 0 0 0 0 0 0 0 0 0 0 0 0 0 0 0 0 0 0
0 0 0 0 0 0 0 0 0 0 0 0 0 0 0 0 0 0 0 0 0 0 0 0 0 0 0 0 0 0 0 0 0 0 0 0 0 0 0 0 0 0 0 0
0 0 0 0 0 0 0 0 0 0 0 0 0 0 0 0 0 0 0 0 0 0 0 0 0 0 0 0 0 0 0 0 0 0 0 0 0 0 0 0 0 0 0 0
0 0 0 0 0 0 0 0 0 0 0 0 0 0 0 0 0 0 0 0 0 0 0 0 0 0 0 0 0 0 0 0 0 0 0 0 0 0 0 0 0 0 0 0
0 0 0 0 0 0 0 0 0 0 0 0 0 0 0 0 0 0 0 0 0 0 0 0 0 0 0 0 0 0 0 0 0 0 0 0 0 0 0 0 0 0 0 0
Wind_Speed
2 3 7 10 8 3 5 5 4 3 1 3 7 11 12 7 5 7 7 6 7 8 6 4 4 4 4 3 4 4 3 2 2 1 1 1 1 2 1 2 2 2 2 2
3 7 7 4 5 2 3 3 3 3 1 2 5 11 11 8 7 8 8 8 8 6 4 4 4 4 5 5 4 4 4 3 3 2 2 1 1 1 2 2 3 3 3 3
8 4 5 6 5 5 5 5 4 3 3 2 4 9 6 4 3 4 6 6 7 9 8 6 5 5 5 5 6 5 5 4 3 2 1 0 1 1 1 2 2 3 3 3
5 4 4 5 6 7 6 5 5 3 0 3 1 6 8 4 5 4 5 5 6 6 6 6 6 6 6 6 5 4 4 4 3 3 2 2 2 3 4 3 3 4 4 4
6 4 5 6 6 7 4 3 3 2 3 2 1 3 11 3 5 6 5 5 5 5 6 7 7 6 5 4 4 3 3 3 3 3 4 3 3 3 3 3 4 5 4 5
3 2 4 6 3 6 7 6 6 5 4 4 5 5 10 5 6 5 4 4 4 4 4 4 4 4 3 2 2 2 3 4 3 4 4 4 5 4 4 4 4 4 4 4
3 3 2 3 5 3 5 6 3 2 1 8 3 5 12 7 5 5 4 4 3 3 4 4 4 3 3 3 3 3 3 4 4 4 4 5 5 5 5 5 5 5 4 4
6 6 6 5 6 8 6 8 8 8 6 4 2 8 10 5 5 4 3 2 2 3 3 4 4 4 4 4 3 3 4 4 3 4 4 4 4 4 4 5 5 5 5 6
7 5 1 3 3 10 7 5 5 6 2 2 6 8 11 3 2 1 0 1 2 3 3 3 3 3 3 4 4 4 4 4 4 4 4 4 4 5 5 6 5 5 6 6
6 3 1 2 4 2 5 8 5 5 6 5 6 5 6 4 3 2 1 1 2 2 2 2 3 3 3 3 3 2 3 4 4 3 4 4 4 5 5 5 6 7 7 7
3 4 0 2 6 8 5 4 5 5 5 6 4 8 6 5 3 3 3 3 3 3 3 2 2 2 1 1 1 2 2 3 3 3 4 4 4 5 5 5 7 7 7 7
3 4 2 4 1 2 4 6 7 6 5 4 3 8 3 2 2 2 3 3 2 2 2 1 1 1 1 1 2 2 2 3 4 4 4 4 4 4 5 6 7 7 8 7
5 5 3 1 1 0 2 3 4 4 5 5 5 8 2 2 2 1 2 2 1 1 1 0 1 1 2 2 2 2 3 3 3 3 4 4 5 5 6 7 7 7 7 8
3 4 6 9 6 6 4 4 5 6 5 6 8 7 6 4 3 3 2 2 1 1 1 1 1 2 2 2 2 3 3 3 3 3 3 4 5 6 6 7 7 7 7 7
3 3 3 3 2 3 4 7 8 9 9 9 8 9 9 6 4 3 2 2 1 2 2 2 2 3 3 3 3 3 3 3 3 3 4 5 6 6 6 6 6 6 6 7
2 2 1 2 2 2 4 6 10 10 9 9 7 9 6 4 2 2 3 2 3 3 3 3 3 3 3 3 3 3 4 4 3 4 5 6 6 6 6 6 6 6 7 7
2 3 2 2 1 1 7 9 11 8 8 9 12 10 3 3 4 5 4 4 4 4 4 3 3 3 3 3 3 3 4 4 4 4 5 6 6 6 6 7 6 7 7 7
4 3 2 2 2 7 7 2 6 8 7 7 5 3 4 5 4 4 3 4 3 3 3 3 3 3 3 3 3 3 4 4 4 5 6 6 6 7 7 6 7 7 6 7
4 5 3 3 3 7 6 2 3 5 5 4 6 4 2 1 2 3 1 1 2 2 3 3 3 3 3 3 3 3 4 4 5 6 6 6 6 7 7 7 7 7 6 7
2 3 3 3 4 7 4 2 1 3 3 2 3 4 2 1 1 5 2 2 2 2 2 2 2 2 2 3 3 3 4 4 6 6 7 6 6 6 7 7 7 6 6 7
3 2 4 4 4 7 5 3 2 4 5 2 1 2 3 3 5 3 3 3 2 3 3 2 1 2 3 3 3 4 5 6 6 7 7 6 6 6 6 6 6 6 7 7
6 5 4 4 4 8 2 2 3 4 1 1 1 1 2 2 2 2 2 3 3 3 3 2 2 3 4 3 3 4 6 7 6 6 7 6 6 6 6 6 7 6 6 7
5 6 5 7 6 2 1 2 2 1 1 1 1 2 1 2 3 3 3 3 3 3 4 3 3 4 4 4 3 5 7 6 6 6 7 7 7 6 6 6 7 6 5 5
3 1 2 2 4 2 2 1 1 1 1 1 2 2 1 2 3 3 4 4 4 4 4 3 3 4 6 5 4 5 6 6 6 7 7 7 6 7 6 5 5 5 5 5
4 3 2 3 3 2 2 2 2 2 2 2 2 2 2 2 3 3 3 4 4 4 4 3 4 5 6 6 6 6 5 5 6 7 7 7 6 6 6 6 5 6 6 6
4 5 5 5 4 3 4 2 2 2 3 2 2 3 2 2 3 3 4 4 4 4 4 4 5 5 6 6 6 6 5 4 5 6 6 6 5 5 5 5 6 8 9 12
Wind_Direction
117 130 202 204 194 177 162 173 212 243 236 198 241 262 271 270 246 245 239 226 223 228 232 209 200 186 170 172 172 173 170 178 152 146 168 215 260 271 275 263 257 261 261 265
107 234 219 160 171 171 151 182 231 283 348 227 278 274 267 253 233 226 226 224 221 223 222 204 193 185 183 184 185 185 189 188 190 190 191 199 218 248 254 264 267 257 258 262
188 216 170 155 164 186 209 198 202 224 348 7 325 298 277 267 240 241 228 219 210 205 206 201 195 197 191 194 195 197 202 201 203 196 157 63 12 328 296 283 273 264 263 262
225 235 155 166 190 174 226 207 181 177 94 296 14 292 286 278 290 260 244 229 218 210 200 195 192 196 201 205 201 202 203 209 206 186 186 198 219 246 249 254 262 274 265 261
222 193 171 191 197 171 182 122 133 138 150 306 262 237 280 299 276 263 246 234 228 209 195 193 194 198 203 198 197 203 204 215 211 203 200 207 232 243 261 269 270 271 269 261
229 215 192 190 154 153 131 84 67 57 79 265 215 192 272 241 228 254 248 235 227 203 195 195 192 186 192 192 196 200 207 225 217 212 213 215 231 249 268 275 273 274 274 269
235 238 213 141 111 129 131 112 67 358 313 248 193 209 250 248 236 235 245 249 227 191 186 190 189 192 197 199 207 208 211 235 235 225 227 227 232 238 247 259 262 270 276 274
185 233 208 185 164 166 180 155 163 189 217 262 209 234 254 261 274 265 254 229 198 193 195 199 202 202 207 209 209 211 220 240 242 238 241 241 240 241 249 252 257 259 261 263
182 224 228 188 157 141 153 189 156 131 134 265 257 276 296 277 283 286 258 145 201 211 210 209 209 210 214 219 222 219 227 246 250 249 254 254 249 248 255 261 260 263 263 267
159 191 239 162 99 50 151 144 126 142 166 236 274 261 254 268 254 261 249 245 247 226 226 226 225 225 230 234 242 242 237 243 252 252 254 264 259 255 258 264 266 267 269 269
148 152 188 164 188 175 139 150 144 139 163 172 242 264 228 221 224 224 244 251 240 228 229 233 248 249 246 260 250 251 262 270 276 270 266 269 270 267 267 266 267 268 272 271
148 131 192 236 274 191 169 167 149 163 208 188 192 265 283 222 253 258 269 276 265 245 239 241 266 309 312 289 286 273 273 278 282 281 278 274 278 280 274 272 274 273 273 272
146 139 122 353 325 110 192 179 163 129 127 164 183 257 307 2 346 316 282 281 281 273 278 304 306 283 276 278 279 275 274 277 288 293 289 288 288 285 280 277 278 277 274 275
122 156 182 196 207 177 199 203 176 152 179 204 220 248 295 315 320 323 313 299 291 281 269 272 285 280 279 278 273 276 286 290 296 298 295 294 290 286 285 285 284 281 279 280
118 184 208 243 239 176 199 198 188 198 200 202 224 227 252 259 258 260 259 275 300 298 295 283 286 290 298 302 301 297 298 305 308 309 302 293 292 289 288 289 290 289 287 286
107 167 166 254 232 216 242 224 209 219 221 230 248 256 249 260 253 258 255 254 265 274 280 287 291 298 299 293 296 306 309 309 312 303 295 297 299 297 293 292 293 295 293 290
161 139 141 237 309 42 255 221 204 207 208 200 228 242 228 255 252 245 246 249 255 269 277 278 284 281 282 285 289 293 297 308 310 299 297 299 300 299 295 294 297 293 292 291
157 137 141 154 116 228 244 216 200 213 228 216 228 241 219 230 255 262 247 235 253 277 288 297 299 298 297 300 304 305 309 311 305 301 300 303 304 301 300 301 297 294 293 292
174 150 151 161 214 269 291 262 177 196 248 221 225 242 246 267 332 306 292 217 243 263 275 279 286 292 301 304 307 315 314 312 307 302 302 304 304 303 303 302 299 298 298 297
143 150 153 167 196 234 258 285 226 129 273 278 210 226 222 92 279 274 301 322 306 306 296 296 312 321 313 307 315 316 309 309 303 301 302 302 301 299 297 295 297 297 296 293
156 166 187 192 222 257 268 294 121 167 244 302 217 212 191 207 228 264 304 318 319 319 314 317 329 317 299 304 317 311 307 299 297 303 305 305 302 299 292 293 296 297 297 298
175 172 186 169 210 250 301 107 173 220 276 325 321 255 229 253 275 298 311 317 323 327 331 331 326 311 307 308 312 306 299 297 304 307 307 305 304 302 303 298 299 298 297 299
199 190 187 194 213 238 184 198 234 207 219 288 293 292 265 278 286 297 301 305 307 313 317 314 304 306 308 304 294 292 296 305 309 308 306 303 304 301 298 293 296 298 296 296
260 190 168 238 259 252 264 281 304 276 240 277 287 293 286 277 282 290 300 306 305 307 304 305 306 304 303 304 297 286 296 306 307 306 306 305 304 304 303 295 290 291 293 294
220 174 191 245 272 304 289 258 263 292 303 314 313 299 284 280 288 287 295 300 299 301 299 297 291 290 294 301 300 299 300 306 306 304 304 305 302 298 300 298 292 291 281 282
199 180 185 226 229 222 256 267 281 290 297 300 306 313 317 291 282 293 293 295 296 298 301 301 298 295 298 301 301 302 303 301 300 305 306 303 303 303 303 306 310 307 303 307